406  
ASUS42 KRAH 210410  
RWRRAH  
NORTH CAROLINA WEATHER ROUNDUP  
NATIONAL WEATHER SERVICE RALEIGH NC  
1200 AM EDT FRI SEP 21 2018  
 
NOTE: "FAIR" INDICATES FEW OR NO CLOUDS BELOW 12,000 FEET WITH NO  
SIGNIFICANT WEATHER AND/OR S TO VISIBILITY
.  
 
NCZ001-053-055-056-065-067-210500-  
WESTERN NORTH CAROLINA  
 
CITY SKY/WX TMP DP RH WIND PRES REMARKS
 
ASHEVILLE MOCLDY 70 68 93 CALM 30.26R  
JEFFERSON NOT AVBL  
MORGANTON CLOUDY 74 73 97 CALM 30.23R  
HICKORY FAIR 73 70 90 CALM 30.20R  
RUTHERFORDTON NOT AVBL  
MOUNT AIRY MOCLDY 75 70 83 SE3 30.22R  
BOONE FAIR 64 64 100 CALM 30.30S FOG  

 
 
NCZ021-022-025-041-071-084-088-210500-  
CENTRAL NORTH CAROLINA  
 
CITY SKY/WX TMP DP RH WIND PRES REMARKS
 
CHARLOTTE FAIR 76 69 79 S5 30.18R  
GREENSBORO FAIR 74 70 87 S10 30.20R  
WINSTON-SALEM FAIR 74 69 85 SE5 30.21R  
RALEIGH-DURHAM FAIR 74 69 85 SE7 30.21R  
FORT BRAGG FAIR 75 71 86 SE5 30.19R  
FAYETTEVILLE FAIR 75 70 84 SE7 30.19R  
BURLINGTON MOCLDY 75 70 84 SE3 30.19R  
LAURINBURG NOT AVBL  

 
 
NCZ011-015-027-028-043-044-047-080-103-210500-  
NORTHEASTERN NORTH CAROLINA  
 
CITY SKY/WX TMP DP RH WIND PRES REMARKS
 
ROCKY MT-WILSO FAIR 70 66 87 CALM 30.22R  
GREENVILLE FAIR 70 64 83 SE3 30.23S  
WASHINGTON FAIR 68 65 89 CALM 30.22S  
ELIZABETH CITY FAIR 70 67 90 E3 30.22S  
MANTEO NOT AVBL  
CAPE HATTERAS FAIR 74 64 71 NE7 30.19S  

 
 
NCZ078-087-090-091-093-098-101-210500-  
SOUTHEASTERN NORTH CAROLINA  
 
CITY SKY/WX TMP DP RH WIND PRES REMARKS
 
LUMBERTON NOT AVBL  
GOLDSBORO FAIR 72 68 87 SE5 30.19S  
KINSTON FAIR 72 67 83 CALM 30.22S  
KENANSVILLE FAIR 70 68 94 CALM 30.22R  
NEW BERN FAIR 69 67 93 NE3 30.22R  
CHERRY POINT NOT AVBL  
BEAUFORT NOT AVBL  
JACKSONVILLE FAIR 73 66 78 E6 30.20R  
WILMINGTON FAIR 76 66 71 E6 30.19R  

 
 
 
 
CLICK HERE TO GO TO PREVIOUS BULLETINS.

The Nexlab NC Page Main Text Page